This is the latest recevied weather packets stored in our database for station/object KC8YYF. If no packets are shown the sender has not sent any weather packets the latest 1 day(s).
| Time | Temp. | Humidity | Pressure | Rain* | Wind** | Luminosity | Snow |
|---|---|---|---|---|---|---|---|
| 1778046651 | 12.22° C | 99% | 1007.6 hPa | 0 mm | - | 0 W/m² | - |
| 1778046348 | 12.78° C | 99% | 1007.6 hPa | 0 mm | - | 0 W/m² | - |
| 1778045742 | 13.89° C | 99% | 1008.1 hPa | 0 mm | - | 0 W/m² | - |
| 1778045138 | 14.44° C | 99% | 1008 hPa | 0 mm | - | 0 W/m² | - |
| 1778044836 | 14.44° C | 99% | 1008.1 hPa | 0.51 mm | - | 0 W/m² | - |
| 1778044532 | 14.44° C | 99% | 1008.2 hPa | 0.51 mm | - | 0 W/m² | - |
| 1778044229 | 14.44° C | 99% | 1008.2 hPa | 0 mm | - | 0 W/m² | - |
| 1778043927 | 14.44° C | 99% | 1008.3 hPa | 0 mm | - | 0 W/m² | - |
| 1778042716 | 14.44° C | 99% | 1008.3 hPa | 1.27 mm | - | 0 W/m² | - |
| 1778042412 | 14.44° C | 99% | 1008.5 hPa | 0 mm | - | 0 W/m² | - |
| 1778042109 | 14.44° C | 99% | 1008.7 hPa | 0.51 mm | - | 0 W/m² | - |
| 1778041204 | 14.44° C | 99% | 1008.9 hPa | 0.51 mm | - | 0 W/m² | - |
| 1778040599 | 14.44° C | 99% | 1008.8 hPa | 0.51 mm | - | 0 W/m² | - |
| 1778039992 | 14.44° C | 99% | 1008.9 hPa | 0.51 mm | - | 0 W/m² | - |
| 1778039386 | 14.44° C | 99% | 1008.9 hPa | 0 mm | - | 0 W/m² | - |
| 1778039083 | 14.44° C | 99% | 1008.8 hPa | 0 mm | - | 0 W/m² | - |
| 1778038478 | 14.44° C | 99% | 1009 hPa | 0.51 mm | - | 0 W/m² | - |
| 1778038174 | 14.44° C | 99% | 1009 hPa | 1.27 mm | - | 0 W/m² | - |
| 1778037872 | 14.44° C | 99% | 1009.1 hPa | 0.51 mm | - | 0 W/m² | - |
| 1778037568 | 14.44° C | 99% | 1008.8 hPa | 0.51 mm | - | 0 W/m² | - |
| 1778037265 | 14.44° C | 99% | 1008.7 hPa | 0.51 mm | - | 0 W/m² | - |
| 1778036963 | 14.44° C | 99% | 1008.8 hPa | 0 mm | - | 0 W/m² | - |
| 1778036661 | 14.44° C | 99% | 1009.1 hPa | 0 mm | - | 0 W/m² | - |
| 1778036055 | 14.44° C | 99% | 1009.2 hPa | 0.51 mm | - | 0 W/m² | - |
| 1778035751 | 14.44° C | 99% | 1009 hPa | 0 mm | - | 0 W/m² | - |
* Rain latest hour (hover to see other rain measurements)
** Current wind speed in m/s (hover to see current wind gust speed)